[[{"header":{"parameterUnit":"m.s-1","parameterCategory":1,"la1":30.2991,"la2":30.254,"lo1":-89.0895,"lo2":-89.0444,"dy":0.0017,"dx":0.0017,"nx":28,"ny":28,"refTime":"2023-09-30T21:00:00:Z","depth":0,"parameterNumber":2,"parameterNumberName":"U-component_of_WINDS"},"data":[0,0,0,0,0,0,0,0,0,0,0,0,0,0,0,0,0,0,0,0,0,0,0,0,0,0,0,0,0,0,0,0,0,0,0,0,0,0,0,0,0,0,0,0,0,0,0,0,0,0,0,0,0,0,0,0,0,0,-1.219,-1.219,0,-1.2208,-1.2208,-1.2208,-1.2111,-1.2109,-1.2106,-1.2103,-1.2128,-1.2132,-1.2135,0,0,0,0,0,0,0,0,0,0,0,0,0,-1.2078,-1.208,-1.219,-1.219,-1.219,-1.2207,-1.2208,-1.2208,-1.2112,-1.2108,-1.2105,-1.2102,-1.2127,-1.2131,-1.2135,0,0,0,0,0,0,0,0,0,0,0,0,0,-1.2114,-1.2081,-1.219,-1.2144,-1.214,-1.2207,-1.2208,-1.2208,-1.2113,-1.2108,-1.2104,-1.21,-1.2126,-1.2131,-1.2136,-1.225,0,0,-1.2151,-1.2153,0,0,0,0,0,0,0,0,-1.2112,-1.2118,-1.215,-1.2147,-1.2143,-1.2153,-1.2177,-1.2222,-1.2114,-1.2123,-1.2103,-1.2098,-1.214,-1.2144,-1.2157,-1.2251,-1.2252,-1.2151,-1.2154,-1.2156,-1.2157,0,0,0,0,0,0,0,-1.211,-1.2117,-1.2197,-1.2151,-1.2147,-1.2124,-1.2125,-1.2185,-1.2155,-1.2122,-1.2115,-1.2118,-1.2138,-1.2152,-1.2156,-1.2252,-1.2151,-1.2155,-1.2158,-1.216,-1.2442,-1.2446,0,0,0,0,0,0,-1.2112,-1.2116,-1.2196,-1.2197,-1.2117,-1.213,-1.213,-1.2154,-1.2154,-1.215,-1.2122,-1.2114,-1.2146,-1.2151,-1.2157,-1.2292,-1.2156,-1.2161,-1.2163,-1.2438,-1.2443,-1.2448,0,0,0,0,0,0,-1.211,-1.2121,-1.2196,-1.2155,-1.2162,-1.2136,-1.2163,-1.2157,-1.2171,-1.2154,-1.2149,-1.2142,-1.2143,-1.215,-1.2227,-1.2291,-1.2163,-1.2167,-1.2432,-1.2439,-1.2446,-1.2562,0,0,0,0,0,0,-1.2108,-1.212,-1.2162,-1.2156,-1.2165,-1.2264,-1.2167,-1.216,-1.2179,-1.2168,-1.2171,-1.2168,-1.214,-1.222,-1.2232,-1.2296,-1.2171,-1.2426,-1.2435,-1.2443,-1.2552,-1.2572,-1.2589,0,0,0,0,0,-1.2104,-1.2196,-1.2165,-1.2175,-1.2216,-1.2268,-1.2273,-1.2237,-1.2184,-1.2227,-1.2216,-1.2168,-1.2282,-1.2229,-1.2241,-1.2308,-1.2422,-1.2433,-1.2443,-1.2544,-1.2568,-1.2588,0,0,0,0,0,0,-1.2213,-1.2194,-1.216,-1.2252,-1.2262,-1.2251,-1.2305,-1.2263,-1.2291,-1.228,-1.2236,-1.2237,-1.2323,-1.2322,-1.2264,-1.2418,-1.2343,-1.2356,-1.2416,-1.2438,-1.2456,-1.2456,-1.2175,0,0,0,0,0,-1.2247,-1.2288,-1.227,-1.2353,-1.236,-1.2332,-1.2353,-1.2324,-1.2333,-1.2338,-1.2332,-1.2345,-1.2384,-1.2411,-1.2445,-1.255,-1.2551,-1.2602,-1.262,-1.2635,-1.2648,-1.2706,-1.2729,-1.2482,-1.2482,-1.2481,0,0,-1.2319,-1.2314,-1.2343,-1.2375,-1.238,-1.2426,-1.2336,-1.2388,-1.2423,-1.2346,-1.2419,-1.2415,-1.2427,-1.2519,-1.2559,-1.2521,-1.2716,-1.2648,-1.266,-1.2665,-1.2719,-1.2742,-1.2763,-1.2489,-1.2487,-1.2486,0,0,-1.2475,-1.2474,-1.2543,-1.2549,-1.2556,-1.2536,-1.2553,-1.2548,-1.2542,-1.2613,-1.2557,-1.2598,-1.2665,-1.2676,-1.269,-1.2848,-1.2806,-1.2861,-1.2957,-1.3013,-1.3033,-1.305,-1.3109,-1.313,-1.2873,-1.2873,-1.2874,0,-1.2564,-1.2629,-1.2585,-1.2641,-1.2657,-1.2587,-1.2658,-1.2667,-1.2686,-1.27,-1.2656,-1.2738,-1.2741,-1.2836,-1.2874,-1.2887,-1.2907,-1.2862,-1.3033,-1.305,-1.3065,-1.3121,-1.3143,-1.288,-1.2879,-1.2879,-1.2878,0,-1.274,-1.2786,-1.2842,-1.2859,-1.2882,-1.2945,-1.2912,-1.294,-1.2909,-1.2895,-1.2969,-1.2969,-1.3003,-1.3022,-1.2993,-1.3113,-1.3089,-1.304,-1.2964,-1.3096,-1.3148,-1.3169,-1.289,-1.2888,-1.2885,-1.2884,0,0,-1.2968,-1.2958,-1.2979,-1.2987,-1.2989,-1.3024,-1.3085,-1.3115,-1.3142,-1.3156,-1.3208,-1.3265,-1.322,-1.3236,-1.3207,-1.3256,-1.3384,-1.3201,-1.32,-1.3237,-1.3519,-1.3558,-1.3583,-1.3354,-1.3358,-1.3361,-1.3518,0,-1.3121,-1.3222,-1.3184,-1.3289,-1.3332,-1.3265,-1.3318,-1.3326,-1.3314,-1.335,-1.3337,-1.3379,-1.3314,-1.3324,-1.3369,-1.3359,-1.344,-1.3346,-1.3405,-1.3407,-1.3407,-1.3609,-1.3651,-1.38,-1.3538,-1.3541,-1.3544,0,-1.3315,-1.3335,-1.3445,-1.3439,-1.3455,-1.3503,-1.3529,-1.3563,-1.3571,-1.3558,-1.3576,-1.3536,-1.3597,-1.3519,-1.3604,-1.3541,-1.3562,-1.3561,-1.3565,-1.3572,-1.3486,-1.3625,-1.3846,-1.387,-1.3575,-1.3572,-1.357,0,-1.3472,-1.3527,-1.36,-1.3608,-1.3602,-1.3638,-1.3638,-1.3641,-1.3662,-1.3685,-1.3698,-1.3728,-1.3746,-1.3771,-1.3741,-1.3686,-1.3831,-1.375,-1.3825,-1.3827,-1.3862,-1.3861,-1.4093,-1.3871,-1.387,-1.387,-1.3869,0,-1.365,-1.372,-1.3671,-1.3716,-1.3793,-1.3748,-1.3826,-1.3818,-1.3822,-1.3866,-1.381,-1.3853,-1.3809,-1.3849,-1.3825,-1.3901,-1.3908,-1.3902,-1.3896,-1.3909,-1.391,-1.3925,-1.3915,-1.3876,-1.3874,-1.3873,-1.3872,0,-1.3841,-1.381,-1.3885,-1.3873,-1.3871,-1.3929,-1.3919,-1.3962,-1.3944,-1.4,-1.4011,-1.3985,-1.4028,-1.4,-1.4044,-1.4029,-1.4128,-1.4106,-1.4125,-1.412,-1.4198,-1.4193,-1.4451,-1.4484,-1.4238,-1.424,-1.4242,0,-1.3957,-1.401,-1.4002,-1.4026,-1.4029,-1.4069,-1.4089,-1.4047,-1.4071,-1.4083,-1.4125,-1.4163,-1.4191,-1.4264,-1.4251,-1.4285,-1.4265,-1.4353,-1.427,-1.4282,-1.427,-1.4268,-1.4274,-1.4371,-1.4374,-1.4376,-1.4378,0,-1.4169,-1.4151,-1.4181,-1.4207,-1.4232,-1.4251,-1.4265,-1.4289,-1.4246,-1.4276,-1.4318,-1.434,-1.4384,-1.4424,-1.4452,-1.4454,-1.4411,-1.4404,-1.4424,-1.4439,-1.4449,-1.4448,-1.4174,-1.4399,-1.4397,-1.4395,-1.4394,-1.4393,-1.4328,-1.4371,-1.4373,-1.4409,-1.4414,-1.4429,-1.4468,-1.4454,-1.4488,-1.452,-1.4492,-1.4544,-1.4551,-1.4584,-1.4591,-1.4632,-1.4597,-1.4625,-1.4633,-1.4641,-1.4653,-1.444,-1.4637,-1.4637,-1.4636,-1.4635,-1.4635,0,-1.4538,-1.4535,-1.4569,-1.4589,-1.4618,-1.4571,-1.4584,-1.4612,-1.4658,-1.4666,-1.4695,-1.4744,-1.4782,-1.4771,-1.4805,-1.484,-1.4821,-1.4851,-1.485,-1.4851,-1.4682,-1.4662,-1.4866,-1.4866,-1.4866,-1.4866,-1.4866,-1.4866,-1.4652,-1.4723,-1.4705,-1.4779,-1.4776,-1.4825,-1.4836,-1.485,-1.4857,-1.4914,-1.4944,-1.4935,-1.4937,-1.4971,-1.5004,-1.4999,-1.5016,-1.5054,-1.5043,-1.4886,-1.4863,-1.4842,-1.4823,-1.5057,-1.5057,-1.521,-1.5211,-1.5212]},{"header":{"parameterUnit":"m.s-1","parameterCategory":1,"la1":30.2991,"la2":30.254,"lo1":-89.0895,"lo2":-89.0444,"dy":0.0017,"dx":0.0017,"nx":28,"ny":28,"refTime":"2023-09-30T21:00:00:Z","depth":0,"parameterNumber":3,"parameterNumberName":"V-component_of_WINDS"},"data":[0,0,0,0,0,0,0,0,0,0,0,0,0,0,0,0,0,0,0,0,0,0,0,0,0,0,0,0,0,0,0,0,0,0,0,0,0,0,0,0,0,0,0,0,0,0,0,0,0,0,0,0,0,0,0,0,0,0,-1.4243,-1.4244,0,-1.4338,-1.4339,-1.434,-1.439,-1.439,-1.439,-1.439,-1.4484,-1.4486,-1.4489,0,0,0,0,0,0,0,0,0,0,0,0,0,-1.4102,-1.4104,-1.4243,-1.4244,-1.4245,-1.4337,-1.4339,-1.434,-1.439,-1.439,-1.439,-1.439,-1.4483,-1.4486,-1.4489,0,0,0,0,0,0,0,0,0,0,0,0,0,-1.4176,-1.4105,-1.4243,-1.4281,-1.4286,-1.4337,-1.4339,-1.434,-1.439,-1.439,-1.439,-1.4391,-1.4482,-1.4486,-1.4489,-1.4508,0,0,-1.45,-1.4502,0,0,0,0,0,0,0,0,-1.4172,-1.4181,-1.4275,-1.4279,-1.4284,-1.4352,-1.4323,-1.4396,-1.439,-1.435,-1.439,-1.4391,-1.444,-1.4447,-1.4464,-1.4512,-1.4516,-1.45,-1.4503,-1.4504,-1.4505,0,0,0,0,0,0,0,-1.4167,-1.4178,-1.428,-1.4276,-1.4282,-1.4293,-1.4304,-1.4337,-1.4393,-1.4354,-1.4358,-1.4368,-1.4442,-1.4461,-1.4467,-1.4518,-1.45,-1.4504,-1.4506,-1.4507,-1.4585,-1.4585,0,0,0,0,0,0,-1.4156,-1.4173,-1.4277,-1.4283,-1.4227,-1.4295,-1.4307,-1.433,-1.4393,-1.4402,-1.4368,-1.437,-1.4454,-1.4462,-1.447,-1.4496,-1.4504,-1.4507,-1.451,-1.4585,-1.4585,-1.4585,0,0,0,0,0,0,-1.4153,-1.4165,-1.4273,-1.4229,-1.4244,-1.4298,-1.4323,-1.4332,-1.435,-1.4404,-1.4413,-1.4377,-1.4455,-1.4465,-1.4498,-1.45,-1.4509,-1.4512,-1.4586,-1.4585,-1.4585,-1.4548,0,0,0,0,0,0,-1.4148,-1.4163,-1.4172,-1.4229,-1.4246,-1.4301,-1.4323,-1.4334,-1.4357,-1.436,-1.4414,-1.4423,-1.4456,-1.4493,-1.4502,-1.4505,-1.4515,-1.4586,-1.4585,-1.4585,-1.4549,-1.4546,-1.4544,0,0,0,0,0,-1.4143,-1.4157,-1.4172,-1.4184,-1.4258,-1.4301,-1.4311,-1.4349,-1.4357,-1.4365,-1.4399,-1.4422,-1.4498,-1.4496,-1.4506,-1.4511,-1.4586,-1.4586,-1.4585,-1.455,-1.4547,-1.4544,0,0,0,0,0,0,-1.4098,-1.4165,-1.4183,-1.4216,-1.4252,-1.4309,-1.4321,-1.4344,-1.4378,-1.438,-1.4425,-1.4436,-1.4465,-1.4491,-1.4487,-1.4532,-1.4544,-1.4546,-1.4514,-1.4511,-1.4509,-1.4502,-1.4518,0,0,0,0,0,-1.4092,-1.4122,-1.4179,-1.4202,-1.422,-1.4267,-1.4287,-1.4314,-1.4353,-1.4368,-1.4405,-1.4441,-1.4473,-1.4494,-1.4526,-1.4553,-1.4565,-1.4561,-1.4559,-1.4556,-1.4557,-1.4573,-1.4571,-1.4585,-1.4585,-1.4585,0,0,-1.4079,-1.412,-1.4136,-1.4194,-1.4226,-1.4255,-1.428,-1.431,-1.4332,-1.4372,-1.4406,-1.4434,-1.4478,-1.4507,-1.4522,-1.453,-1.4556,-1.4556,-1.4554,-1.4556,-1.4572,-1.4571,-1.457,-1.4585,-1.4585,-1.4585,0,0,-1.4071,-1.4106,-1.4129,-1.416,-1.4207,-1.4239,-1.4244,-1.4298,-1.4318,-1.4353,-1.4384,-1.441,-1.4465,-1.4494,-1.4517,-1.4519,-1.454,-1.4528,-1.4515,-1.4529,-1.4528,-1.4528,-1.4528,-1.4527,-1.4529,-1.4529,-1.4529,0,-1.405,-1.4096,-1.4137,-1.4166,-1.419,-1.4229,-1.4252,-1.428,-1.4335,-1.435,-1.4358,-1.4427,-1.4459,-1.4496,-1.4497,-1.4514,-1.452,-1.4522,-1.4525,-1.4525,-1.4525,-1.4526,-1.4526,-1.4527,-1.4527,-1.4528,-1.4528,0,-1.4067,-1.4098,-1.4111,-1.4164,-1.419,-1.4215,-1.4259,-1.428,-1.4303,-1.4333,-1.4367,-1.4407,-1.4448,-1.4459,-1.4482,-1.4499,-1.4502,-1.4517,-1.453,-1.4521,-1.4522,-1.4523,-1.4525,-1.4525,-1.4526,-1.4526,0,0,-1.4033,-1.4109,-1.4113,-1.4137,-1.4192,-1.4217,-1.4243,-1.4285,-1.4301,-1.4338,-1.436,-1.4406,-1.442,-1.4445,-1.4471,-1.4484,-1.4482,-1.4497,-1.4499,-1.4493,-1.4503,-1.4491,-1.449,-1.4497,-1.4497,-1.4497,-1.4499,0,-1.4033,-1.4084,-1.4121,-1.4157,-1.4186,-1.4223,-1.4246,-1.4282,-1.431,-1.4338,-1.4369,-1.44,-1.4417,-1.4432,-1.4446,-1.4479,-1.4485,-1.448,-1.4517,-1.4518,-1.4505,-1.4491,-1.4479,-1.4478,-1.45,-1.45,-1.45,0,-1.404,-1.4076,-1.4115,-1.4166,-1.418,-1.42,-1.424,-1.4267,-1.4307,-1.4327,-1.4355,-1.4382,-1.441,-1.4421,-1.446,-1.4456,-1.4473,-1.4492,-1.4493,-1.4497,-1.4508,-1.4495,-1.4479,-1.4479,-1.4501,-1.4501,-1.4501,0,-1.4011,-1.4069,-1.41,-1.412,-1.4181,-1.4194,-1.4219,-1.426,-1.4282,-1.4317,-1.4332,-1.4369,-1.4389,-1.4417,-1.4453,-1.4457,-1.4487,-1.4501,-1.4504,-1.4503,-1.4508,-1.4507,-1.4494,-1.452,-1.452,-1.452,-1.452,0,-1.4006,-1.4029,-1.4088,-1.4106,-1.4132,-1.4174,-1.4198,-1.4227,-1.4262,-1.4287,-1.4321,-1.4342,-1.4389,-1.4416,-1.4444,-1.4472,-1.448,-1.4496,-1.4503,-1.4493,-1.4491,-1.4505,-1.4506,-1.452,-1.452,-1.452,-1.452,0,-1.3978,-1.4019,-1.4055,-1.411,-1.4124,-1.414,-1.4187,-1.4206,-1.4236,-1.4266,-1.4275,-1.4322,-1.4356,-1.4395,-1.444,-1.4459,-1.4484,-1.4495,-1.4471,-1.4475,-1.4475,-1.4474,-1.447,-1.4472,-1.4496,-1.4496,-1.4496,0,-1.3973,-1.3991,-1.4048,-1.4067,-1.4092,-1.4122,-1.4145,-1.4187,-1.4209,-1.4256,-1.4269,-1.4305,-1.4337,-1.4388,-1.4425,-1.446,-1.4472,-1.4468,-1.4477,-1.4466,-1.4471,-1.447,-1.4471,-1.4465,-1.4465,-1.4465,-1.4464,0,-1.3958,-1.3978,-1.401,-1.4049,-1.4075,-1.4108,-1.4142,-1.4155,-1.4203,-1.4226,-1.4261,-1.4286,-1.4333,-1.4368,-1.4407,-1.4433,-1.4456,-1.4461,-1.4463,-1.4453,-1.4438,-1.4445,-1.4464,-1.4461,-1.4461,-1.4462,-1.4462,-1.4462,-1.3941,-1.3959,-1.4002,-1.4036,-1.4066,-1.4097,-1.4117,-1.415,-1.418,-1.4223,-1.4245,-1.4279,-1.4318,-1.4374,-1.4399,-1.4425,-1.4433,-1.4437,-1.4438,-1.4438,-1.4434,-1.4434,-1.4433,-1.4433,-1.4433,-1.4433,-1.4433,0,-1.3928,-1.3958,-1.3989,-1.4035,-1.4062,-1.4083,-1.4121,-1.4142,-1.4172,-1.4207,-1.4237,-1.4277,-1.4311,-1.4351,-1.4387,-1.4401,-1.4412,-1.4409,-1.4408,-1.4413,-1.4425,-1.442,-1.4399,-1.4399,-1.4399,-1.4399,-1.4399,-1.4399,-1.3925,-1.3955,-1.3979,-1.4024,-1.4053,-1.4088,-1.4108,-1.4136,-1.4164,-1.4207,-1.4236,-1.4262,-1.4299,-1.4338,-1.437,-1.4381,-1.4392,-1.4385,-1.4399,-1.4409,-1.4412,-1.4415,-1.441,-1.4387,-1.4387,-1.4384,-1.4384,-1.4384]}]]